Showing default

IRIDIUM 175, 43928

Orbit data source: Space-Track

IRIDIUM 175, 43928 is a payload satellite owned by Iridium (US) in LEO that was launched on Fri, 11 Jan 2019 UTC via an FALCON 9 launch vehicle from the Air Force Western Test Range (AFWTR). Payload-class satellites include a variety of spacecraft equipped with specific instruments for various scientific and technological missions. These include communications satellites like Starlink; space stations such as the ISS; scientific satellites like the Hubble; Earth observation satellites from companies like Planet Labs, Umbra, and HawkEye 360; GPS; miniature CubeSats for education and research; and military/defense satellites.

Loading next visibility...
Identifier
43928, 2019-002G
Orbit
LEO
Country
Flag of USUS
Related business
Manufacturer
NGIS SSG Gilbert
Mission
Operational Commercial Communications
Bus & Motor
ELITEBUS, Unknown motor
Mass
860 kg wet, 700 kg dry
Launch date (UTC)
2019-01-11 (7 years ago)
Launch vehicle
FALCON 9
Launch site
Air Force Western Test Range (AFWTR)
Object type
Payload
Rocket body
Debris
Shape & HBR
Trap Box + 2 Pan, 4.8 m
Radar Cross Section
10.154 m², Large (>1 m²)

Expand to show TLE details & history
Last TLE update: 1 day ago

TLE from 1 day ago
0 IRIDIUM 175
1 43928U 19002G   25348.62194512  .00000866  00000-0  13333-3 0  9996
2 43928  86.1502  13.0240 0003221  90.3767 269.7819 14.72238939372080
Epoch: 2025-12-14T14:55Z
TLE epoch observation values (Epoch: 2025-12-14T14:55:36.058Z)
Latitude
0.00002°
Longitude
65.59154°
Altitude
657.04 km
Speed
7.529 km/s
True Right ascension
00h 52m 05s
True Declination
0° 00' 00"
Sunlit
Object was in daylight at epoch
Visualization orbit readout
Latitude
Unknown
Longitude
Unknown
Altitude
Unknown
Speed
Unknown
Apparent Right ascension
Unknown
Apparent Declination
Unknown
Sunlit
N/A
Visualization observer readout
Local Sidereal Time
17:45:39
Azimuth
Unknown
Elevation
Unknown
Doppler factor
Unknown
Orbital elements
Apogee altitude
653.11 km
Perigee altitude
648.582 km
Semi-major axis
7,028.983 km
Eccentricity
0.00032
Inclination
86.1502°
RAAN
13.024°
Arg. of periapsis
90.3767°
True anomaly
269.74499°
Mean anomaly
269.7819°
Eccentric anomaly
269.76345°
Mean motion
3.68302 °/min
Orbital period
97.75 mins
BSTAR
0.00013333
Loading maneuver chart data...
Computing Atmospheric mass density...
Loading historical data...
Loading historical data...
Loading historical data...
Loading historical data...
Loading historical data...
Loading historical data...
Loading historical data...

Documentation

Showing up to 5 results
|